This is the latest recevied weather packets stored in our database for station/object WA1OUI. If no packets are shown the sender has not sent any weather packets the latest 10 day(s).
| Time | Temp. | Humidity | Pressure | Rain* | Wind** | Luminosity | Snow |
|---|---|---|---|---|---|---|---|
| 1777925460 | 23.33° C | 28% | 1006.3 hPa | 0 mm | - | 425 W/m² | - |
| 1777925156 | 22.78° C | 27% | 1006.3 hPa | 0 mm | - | 446 W/m² | - |
| 1777924853 | 22.78° C | 27% | 1006.4 hPa | 0 mm | - | 462 W/m² | - |
| 1777924549 | 23.33° C | 28% | 1006.4 hPa | 0 mm | - | 479 W/m² | - |
| 1777924246 | 23.33° C | 27% | 1006.2 hPa | 0 mm | - | 499 W/m² | - |
| 1777923943 | 23.89° C | 27% | 1006.6 hPa | 0 mm | - | 509 W/m² | - |
| 1777923638 | 23.33° C | 27% | 1006.5 hPa | 0 mm | - | 178 W/m² | - |
| 1777923335 | 23.89° C | 28% | 1006.6 hPa | 0 mm | - | 528 W/m² | - |
| 1777923034 | 23.89° C | 26% | 1006.5 hPa | 0 mm | - | 539 W/m² | - |
| 1777922732 | 23.33° C | 26% | 1006.5 hPa | 0 mm | - | 538 W/m² | - |
| 1777922429 | 23.33° C | 27% | 1006.5 hPa | 0 mm | - | 551 W/m² | - |
| 1777922127 | 23.33° C | 28% | 1006.5 hPa | 0 mm | - | 567 W/m² | - |
| 1777921823 | 23.33° C | 28% | 1006.6 hPa | 0 mm | - | 569 W/m² | - |
| 1777921519 | 23.33° C | 30% | 1006.3 hPa | 0 mm | - | 584 W/m² | - |
| 1777921215 | 23.33° C | 31% | 1006.5 hPa | 0 mm | - | 611 W/m² | - |
| 1777920912 | 22.78° C | 33% | 1006.7 hPa | 0 mm | - | 632 W/m² | - |
| 1777920609 | 22.78° C | 28% | 1006.7 hPa | 0 mm | - | 639 W/m² | - |
| 1777920310 | 22.78° C | 30% | 1006.8 hPa | 0 mm | - | 660 W/m² | - |
| 1777920005 | 23.33° C | 28% | 1006.8 hPa | 0 mm | - | 100 W/m² | - |
| 1777919703 | 23.33° C | 27% | 1006.8 hPa | 0 mm | - | 669 W/m² | - |
| 1777919401 | 22.78° C | 26% | 1006.8 hPa | 0 mm | - | 676 W/m² | - |
| 1777919097 | 22.22° C | 29% | 1006.8 hPa | 0 mm | - | 696 W/m² | - |
| 1777918795 | 22.22° C | 27% | 1007.2 hPa | 0 mm | - | 690 W/m² | - |
| 1777918492 | 21.67° C | 28% | 1007.1 hPa | 0 mm | - | 726 W/m² | - |
| 1777918190 | 22.22° C | 27% | 1007 hPa | 0 mm | - | 198 W/m² | - |
* Rain latest hour (hover to see other rain measurements)
** Current wind speed in m/s (hover to see current wind gust speed)